This demonstration page uses our WeatherBlox Daily Observations layout. Learn more.

Left ArrowRight Arrow

39.08367, -84.50855

Hourly Observations for November 24, 2022

Temp ( °F °C ) Dew Point ( °F °C ) Humidity (%) Winds ( mph kmh ) Pressure ( in mb ) Visibility ( mi km ) Precip ( " mm )
12:53 am 00:53 Clear 30 -1.1 26 -3.3 85 85 Calm 30.26 1025 7 11 0.00 0.00
1:53 am 01:53 Clear with Mist and Fog 28 -2.2 26 -3.3 92 92 Calm 30.27 1025 6 10 0.00 0.00
2:53 am 02:53 Clear with Mist and Fog 27 -2.8 25 -3.9 92 92 Calm 30.27 1025 6 10 0.00 0.00
3:53 am 03:53 Clear with Mist and Fog 28 -2.2 26 -3.3 92 92 Calm 30.27 1025 5 8 0.00 0.00
4:53 am 04:53 Clear with Mist and Fog 27 -2.8 25 -3.9 92 92 Calm 30.27 1025 4 6 0.00 0.00
5:53 am 05:53 Clear with Mist and Fog 26 -3.3 25 -3.9 96 96 Calm 30.26 1025 4 6 0.00 0.00
6:53 am 06:53 Clear 26 -3.3 24 -4.4 92 92 Calm 30.27 1025 10 16 0.00 0.00
7:53 am 07:53 Sunny 27 -2.8 26 -3.3 96 96 Calm 30.28 1026 10 16 0.00 0.00
8:53 am 08:53 Sunny 31 -0.6 29 -1.7 92 92 Calm 30.29 1026 10 16 0.00 0.00
9:53 am 09:53 Sunny 39 3.9 34 1.1 82 82 Calm 30.28 1025 10 16 0.00 0.00
10:53 am 10:53 Sunny 47 8.3 33 0.6 58 58 Calm 30.26 1025 10 16 0.00 0.00
11:53 am 11:53 Sunny 56 13.3 32 0 40 40 S 3 6 30.24 1024 10 16 0.00 0.00
12:53 pm 12:53 Sunny 62 16.7 31 -0.6 31 31 SSW 7 11 30.21 1023 10 16 0.00 0.00
1:53 pm 13:53 Sunny 63 17.2 34 1.1 34 34 S 7 11 30.16 1021 10 16 0.00 0.00
2:53 pm 14:53 Sunny 65 18.3 35 1.7 33 33 SSW 5 7 30.14 1021 10 16 0.00 0.00
3:53 pm 15:53 Sunny 64 17.8 36 2.2 35 35 Calm 30.13 1020 10 16 0.00 0.00
4:53 pm 16:53 Partly Cloudy 60 15.6 35 1.7 39 39 SW 5 7 30.12 1020 10 16 0.00 0.00
5:53 pm 17:53 Cloudy 57 13.9 37 2.8 47 47 Calm 30.13 1020 10 16 0.00 0.00
6:53 pm 18:53 Cloudy 53 11.7 38 3.3 56 56 Calm 30.12 1020 10 16 0.00 0.00
7:53 pm 19:53 Cloudy 53 11.7 39 3.9 59 59 WSW 3 6 30.13 1020 10 16 0.00 0.00
8:53 pm 20:53 Cloudy 50 10 44 6.7 80 80 Calm 30.12 1020 10 16 0.01 0.13
9:53 pm 21:53 Cloudy 50 10 46 7.8 86 86 Calm 30.10 1019 10 16 0.00 0.00
10:53 pm 22:53 Cloudy 52 11.1 44 6.7 74 74 Calm 30.10 1019 10 16 0.01 0.13
11:53 pm 23:53 Cloudy 50 10 44 6.7 80 80 SSW 7 11 30.09 1019 10 16 0.00 0.00

Powered by AerisWeather